User: anonymous
Location: Cow Canyon Saddle
(34.2291°N, 117.6698°W)
Time: 19:03:32
(UTC-07:00)
Language:

Lacrosse 5 - Orbit

View from above orbital plane
View from above orbital plane
View from above satellite
View from above satellite

Ground track
Ground track

The orbit data is extracted from the following two-line orbital elements,

1 28646U 05016A   14260.02489437 0.00000150  00000-0  35674-4 0    06
2 28646  57.0090 274.7373 0011602  93.2157 266.7843 14.53511580    08
Epoch (UTC): 17 September 2014 00:35:50
Eccentricity: 0.0011602
inclination: 57.0090°
perigee height: 706 km
apogee height: 722 km
right ascension of ascending node: 274.7373°
argument of perigee: 93.2157°
revolutions per day: 14.53511580
mean anomaly at epoch: 266.7843°
orbit number at epoch: 0

The dashed part of the orbit path shows where the satellite is in the earth's shadow,  

DLR